User: anonymous   Login
Location: Bangkok
(13.7500°N, 100.5170°E)
Time: 22:22:10
(UTC+07:00)
Language:

Cosmos 1802 Rocket - Orbit

View from above orbital plane
View from above orbital plane
View from above satellite
View from above satellite

Ground track
Ground track

The orbit data is extracted from the following two-line orbital elements,

1 17160U 86093B   15208.58880907 -.00000027  00000-0 -43528-4 0  9999
2 17160 082.9253 216.6026 0037492 273.3760 203.7658 13.74560293437995
Epoch (UTC): 27 July 2015 14:07:53
Eccentricity: 0.0037492
inclination: 82.9253°
perigee height: 955 km
apogee height: 1011 km
right ascension of ascending node: 216.6026°
argument of perigee: 273.3760°
revolutions per day: 13.74560293
mean anomaly at epoch: 203.7658°
orbit number at epoch: 43799

The dashed part of the orbit path shows where the satellite is in the earth's shadow,  

DLR